Regional Weather Roundup
Issued by NWS

Home | Current Version | Previous Version | Text Only | Print | Product List | Glossary Off
Versions: 1 2 3 4 5 6 7 8 9 10 11 12 13 14 15 16 17 18 19 20 21 22 23 24 25 26 27 28 29 30 31 32 33 34 35 36 37 38 39 40 41 42 43 44 45 46 47 48 49 50

000
ASUS43 KMKX 030811
RWRWI

WISCONSIN REGIONAL WEATHER ROUNDUP
NATIONAL WEATHER SERVICE MILWAUKEE/SULLIVAN WI
300 AM CDT TUE MAY 03 2016

NOTE: "FAIR" INDICATES FEW OR NO CLOUDS BELOW 12,000 FEET WITH NO
SIGNIFICANT WEATHER AND/OR OBSTRUCTIONS TO VISIBILITY.

WIZ001-002-006>008-014>016-023>028-030900-
NORTHWEST WISCONSIN

CITY           SKY/WX    TMP DP  RH WIND       PRES   REMARKS
SUPERIOR ARPT  CLEAR     37  33  85 SW9       29.88F WCI  31
ASHLAND        CLEAR     43  33  68 SW8       29.89F
HAYWARD        CLEAR     35  31  85 CALM      29.93F
SIREN          CLEAR     49  32  52 W5        29.93F
CUMBERLAND     CLEAR     41  32  70 SW3       29.94F
RICE LAKE      CLEAR     41  38  91 CALM      29.95F
CHETEK         CLEAR     39  35  85 CALM      29.95S
LADYSMITH      CLEAR     39  36  91 CALM      29.95F
EAU CLAIRE     CLEAR     45  38  76 SW5       29.94F
MENOMONIE      CLEAR     39  31  72 CALM      29.96S
NEW RICHMOND   CLEAR     45  34  65 CALM      29.96F
OSCEOLA        CLEAR     40  40  99 CALM      29.98F
$$

WIZ003>005-009-010-017-018-030900-
NORTH CENTRAL WISCONSIN

CITY           SKY/WX    TMP DP  RH WIND       PRES   REMARKS
MANITOWISH WTR FOG       32  32 100 CALM      29.90F VSB 3/4
ARBOR VITAE    CLEAR     37  33  87 CALM      29.91F
WOODRUFF       CLEAR     37  33  87 CALM      29.91F
RHINELANDER    CLEAR     36  32  85 W5        29.92F WCI  32
EAGLE RIVER    CLEAR     31  31  97 CALM      29.90F
LAND O LAKES   MOCLDY    31  31  99 CALM      29.91F
PHILLIPS       CLEAR     36  33  92 CALM      29.92F
TOMAHAWK       CLEAR     31  29  92 CALM      29.92F
MEDFORD        CLEAR     42  34  72 CALM      29.93F
MERRILL        CLEAR     33  33  97 CALM      29.94F
$$

WIZ029-030-035-036-043>047-030900-
CENTRAL WISCONSIN

CITY           SKY/WX    TMP DP  RH WIND       PRES   REMARKS
WAUSAU         CLEAR     49  35  58 NW6       29.92F
MOSINEE        CLEAR     45  34  65 W6        29.94F
MARSHFIELD     CLEAR     46  34  62 W7        29.93F
STEVENS POINT  CLEAR     35  32  89 CALM      29.95S
WAUPACA        CLEAR     43  34  71 CALM      29.94F
WAUTOMA        CLEAR     37  34  89 CALM      29.96F
WISC RAPIDS    CLEAR     39  33  79 CALM      29.96F
CAMP DOUGLAS     N/A     36  36 100 CALM      29.95F
$$

WIZ011>013-019>022-031-037>040-048>050-030900-
NORTHEAST WISCONSIN

CITY           SKY/WX    TMP DP  RH WIND       PRES   REMARKS
ANTIGO         CLEAR     40  34  79 CALM      29.92F
SHAWANO        CLEAR     46  37  69 CALM      29.93F
OCONTO         CLEAR     37  37 100 CALM      29.91F
STURGEON BAY   CLEAR     45  30  57 S7        29.94F
GREEN BAY      CLEAR     43  37  79 CALM      29.93F
MANITOWOC      CLEAR     40  34  79 MISG      29.95F
APPLETON       CLEAR     43  32  65 SW6       29.93S
CLINTONVILLE   CLEAR     45  34  65 SW3       29.93F
OSHKOSH        CLEAR     46  35  65 S9        29.94F
$$

WIZ032>034-041-042-053>061-030900-
SOUTHWEST WISCONSIN

CITY           SKY/WX    TMP DP  RH WIND       PRES   REMARKS
LA CROSSE      CLEAR     48  41  76 S8        29.97F
SPARTA         CLEAR     35  34  97 CALM      29.98S
VIROQUA        CLEAR     47  37  68 W7        29.98S
BOSCOBEL       PTCLDY    41  39  93 SW5       29.99F
PRAIRIE DU CHI CLEAR     46  38  72 N5        29.99F
PLATTEVILLE    CLEAR     46  40  78 W6        29.99F
$$

WIZ056-057-062-063-064-067-068-030900-
SOUTH CENTRAL WISCONSIN

CITY           SKY/WX    TMP DP  RH WIND       PRES   REMARKS
REEDSBURG      PTCLDY    39  39  99 CALM      29.97S
BARABOO/DELLS  PTCLDY    40  36  86 CALM      29.96F
LONE ROCK      PTCLDY    40  37  89 CALM      29.99S
MINERAL POINT  CLEAR     45  37  76 W6        29.98F
MADISON        CLEAR     44  36  73 S3        29.97F
MIDDLETON      CLEAR     38  37  94 CALM      29.97F
WATERTOWN      PTCLDY    36  35  95 CALM      29.96F
MONROE         CLEAR     45  36  70 SW8       29.98F
JANESVILLE     CLEAR     39  37  93 CALM      29.98S
$$

WIZ051-052-058>065-066-070>072-030900-
SOUTHEAST WISCONSIN

CITY           SKY/WX    TMP DP  RH WIND       PRES   REMARKS
MILWAUKEE      CLEAR     40  32  73 CALM      29.97F
WAUKESHA       CLEAR     36  32  87 CALM      29.98F
MILWAUKEE/TIMM PTCLDY    41  32  70 CALM      29.98F
RACINE         CLEAR     43  32  65 W7        29.99F
BURLINGTON     PTCLDY    33  33  98 CALM      29.98F
KENOSHA        CLEAR     38  33  82 W3        29.98F
FOND DU LAC    CLEAR     46  35  65 SW9       29.95F
SHEBOYGAN      CLEAR     41  33  73 SW5       29.96F
WEST BEND      CLEAR     36  34  93 CALM      29.97S
JUNEAU         CLEAR     42  33  68 CALM      29.97F
$$

LSZ147-162-030900-
LAKE SUPERIOR

STATION/POSITION TIME  TEMP    WIND        PRES    WAVE
                       AIR SEA DIR/SP/G            HT/PER
                 (UTC) (F)     (DEG/KT/KT) (MB)    (FT/S)
W MID LAKE BUOY  0750   39 37  240/  4/  4 1011.7F   0
DEVILS ISLAND    0800   40     230/ 13/ 14 1011.6F
SAXON HARBOR     0700   37     200/  3/  5 1011.9F
$$

LMZ867-665-643>646-030900-
LAKE MICHIGAN

STATION/POSITION TIME  TEMP    WIND        PRES    WAVE
                       AIR SEA DIR/SP/G            HT/PER
                 (UTC) (F)     (DEG/KT/KT) (MB)    (FT/S)
CHAMBERS ISLAND  0700   47     170/  3/  6 1013.5F
N MID LAKE BUOY  0750   41 38  180/  6/  6 1013.2F   0
NORTHPORT PIER   0700   46     220/  2/  6 1013.2F
ALGOMA LAKESHORE 0715             CALM       N/A
KEWAUNEE LAKESHO 0700   42      CALM  /  2 1013.5F
SHEBOYGAN LAKESH 0800   47     240/  8/  9 1015.0F
PORT WASHINGTON  0740   46     280/  5/  6 1015.6F
S MID LAKE BUOY  0750   41 41  260/  4/  4 1015.0F   1
KENOSHA   LAKESH 0800   46     270/  9/ 10 1014.9F
$$

TC  - TEMPERATURE IN CELSIUS
VSB - VISIBILITY IN STATUTE MILES
WCI - WIND CHILL INDEX
HX  - HEAT INDEX




USA.gov is the U.S. government's official web portal to all federal, state and local government web resources and services.